AirNav   Pilot Hours Calculator
 
 884 users online  

1S9 Chewelah Municipal Airport
Chewelah, Washington, USA

GOING TO CHEWELAH?


FAA INFORMATION EFFECTIVE 22 APRIL 2021

Location

FAA Identifier: 1S9
Lat/Long: 48-18-50.2495N 117-44-36.3335W
48-18.837492N 117-44.605558W
48.3139582,-117.7434260
(estimated)
Elevation: 2084 ft. / 635 m (estimated)
Variation: 20E (1985)
Time zone: UTC -7 (UTC -8 during Standard Time)
Zip code: 99109

Airport Operations

Airport use: Open to the public
Activation date: 01/1979
Control tower: no
ARTCC: SEATTLE CENTER
FSS: SEATTLE FLIGHT SERVICE STATION
NOTAMs facility: SEA (NOTAM-D service available)
Attendance: UNATNDD
Wind indicator: lighted
Segmented circle: yes
Lights: ACTVT MIRL RY 17/35 - CTAF. PAPI RY 17 AND RY 35 OPER CONTINUOUSLY.
Beacon: white-green (lighted land airport)
Operates sunset to sunrise.

Airport Communications

CTAF: 122.9
WX AWOS-3 at 63S (15 nm N): 119.275 (509-684-8994)

Nearby radio navigation aids

NDB name  Hdg/Dist  Freq  Var  ID
DEER PARK313/24.336516EDPY -.. .--. -.--
IONE188/27.137921EION .. --- -.

Airport Services

Parking: tiedowns
Airframe service: MINOR
Powerplant service: MINOR
Bottled oxygen: NONE
Bulk oxygen: NONE

Runway Information

Runway 17/35

Dimensions: 3537 x 48 ft. / 1078 x 15 m
Surface: asphalt, in good condition
Runway edge lights: medium intensity
Runway edge markings: MARKINGS FADED.
RUNWAY 17  RUNWAY 35
Latitude: 48-19.124150N48-18.550833N
Longitude: 117-44.531783W117-44.679333W
Traffic pattern: rightleft
Displaced threshold: 230 ft.87 ft.
Markings: basic, in poor conditionbasic, in poor condition
Visual slope indicator: 2-light PAPI on right (4.00 degrees glide path)2-light PAPI on left (3.00 degrees glide path)
Obstructions: 11 ft. tree, 275 ft. from runway, 63 ft. right of centerline, 6:1 slope to clear
3 FT DITCH +1 FT TO +3 FT ROCKS & RD 56 FT FM THR; 77 FT L, +14 FT TREES 200 FT FM THR, AND 10 FT SIGN, 86 FT R, 53 FT FM THR.
none

Airport Ownership and Management from official FAA records

Ownership: Publicly-owned
Owner: CITY OF CHEWELAH
PO BOX 258
CHEWELAH, WA 99109
Phone 509-935-8311
Manager: TYRONE BRYANT
139 RICHMOND LANE
CHEWELAH, WA 99109
Phone (509) 936-0234

Airport Operational Statistics

Aircraft based on the field: 17
Single engine airplanes: 16
Multi engine airplanes: 1
    
Aircraft operations: avg 96/week *
60% local general aviation
40% transient general aviation
* for 12-month period ending 31 December 2018

Additional Remarks

ALL PATTERNS TO THE WEST.
DEER & WILDLIFE ON & INVOF ARPT.
FOR CD CTC SEATTLE ARTCC AT 253-351-3694.
LODGING & FOOD AVBL AT APRT.

Instrument Procedures

There are no published instrument procedures at 1S9.

Some nearby airports with instrument procedures:

KDEW - Deer Park Airport (24 nm SE)
KSFF - Felts Field Airport (41 nm SE)
KSKA - Fairchild Air Force Base (42 nm S)
KGEG - Spokane International Airport (43 nm S)
KSZT - Sandpoint Airport (47 nm E)
 
Loc | Ops | Rwys | IFR | FBO | Links
Com | Nav | Svcs | Stats | Notes
Area around 1S9 (Chewelah Municipal Airport)
 
Road maps at: MapQuest Bing Google
 
Aerial photo
WARNING: Photo may not be current or correct
Aerial photo of 1S9 (Chewelah Municipal Airport)
Photo by P.J. Reinders
Taken in September 2008

Do you have a better or more recent aerial photo of Chewelah Municipal Airport that you would like to share? If so, please send us your photo.

 
Sectional chart

 
Airport distance calculator
Flying to Chewelah Municipal Airport? Find the distance to fly.

From to 1S9

Sunrise and sunset
Times for 11-May-2021
 Local
(UTC-7)
 Zulu
(UTC)
Morning civil twilight04:4111:41
Sunrise05:1712:17
Sunset20:1703:17
Evening civil twilight20:5403:54

Current date and time
Zulu (UTC)  12-May-2021 03:10:41
Local (UTC-7)  11-May-2021 20:10:41
 
METAR
K63S 
14nm N 
120255Z AUTO 00000KT 10SM CLR 18/M00 A3008 RMK A01
KDEW 
24nm SE 
120253Z AUTO 00000KT 10SM CLR 15/02 A3009 RMK AO2 SLP188 T01500022 55001
TAF
KSFF 
42nm SE 
111722Z 1118/1218 05003KT P6SM SCT080 SCT110 FM111930 25005KT P6SM SCT070 SCT100 FM120300 VRB03KT P6SM SCT250 FM121000 VRB03KT P6SM SCT150 OVC200
KSKA 
42nm S 
111900Z 1119/1301 20009KT 9999 SCT080 SCT150 QNH3010INS BECMG 1120/1121 24009KT 9999 SCT080 SCT250 QNH3007INS BECMG 1202/1203 VRB06KT 9999 FEW250 QNH3008INS BECMG 1217/1218 08006KT 9999 SCT100 BKN150 QNH3002INS TX22/1123Z TN05/1212Z
KGEG 
43nm S 
111722Z 1118/1218 16005KT P6SM SCT080 SCT100 FM111930 23008KT P6SM SCT070 SCT100 FM120400 VRB03KT P6SM SCT250 FM121000 08006KT P6SM SCT150 OVC200
KCOE 
50nm SE 
111722Z 1118/1218 05003KT P6SM SCT070 SCT110 FM112000 23005KT P6SM VCSH BKN070 BKN100 FM120000 24006KT P6SM SCT080 BKN100 FM120200 14004KT P6SM FEW100 SCT250 FM121000 06008KT P6SM SCT150 OVC200
NOTAMs
Click for the latest NOTAMs
NOTAMs are issued by the DoD/FAA and will open in a separate window not controlled by AirNav.

 

 
 

Would you like to see your business listed on this page?

 If your business provides an interesting product or service to pilots, flight crews, aircraft, or users of the Chewelah Municipal Airport, you should consider listing it here.  To start the listing process, click on the button below
 
Add a business
 

Other Pages about Chewelah Municipal Airport

Update a link
 
Copyright © AirNav, LLC. All rights reserved. Privacy Policy  Contact